Location: Pardubice
(50.0330°N, 15.7830°E)
Time: 11:16:37
(UTC+02:00)

Altair - All Passes

Search period start: 07 October 2024 00:00
Search period end: 17 October 2024 00:00
Orbit: 1501 x 1682 km, 47.2° (Epoch: 06 October)

Date Brightness Start Highest point End Pass type
(mag) Time Alt. Az. Time Alt. Az. Time Alt. Az.
07 Oct - 00:41:40 10° W 00:51:25 77° S 01:01:28 10° E visible
07 Oct - 02:46:14 10° W 02:55:47 56° SSW 03:05:34 10° SE visible
07 Oct - 04:51:37 10° W 04:59:05 25° SW 05:06:38 10° S visible
07 Oct - 20:10:49 10° S 20:18:23 28° SE 20:26:10 10° E visible
07 Oct - 22:12:27 10° SW 22:21:45 61° SSE 22:31:25 10° E visible
08 Oct - 00:16:29 10° W 00:26:10 77° S 00:36:14 10° E visible
08 Oct - 02:21:01 10° W 02:30:35 58° SSW 02:40:25 10° SE visible
08 Oct - 04:26:15 10° W 04:34:00 26° SW 04:41:50 10° S visible
08 Oct - 19:46:02 10° S 19:53:19 26° SE 20:00:47 10° E visible
08 Oct - 21:47:21 10° SW 21:56:34 59° SSE 22:06:10 10° E visible
08 Oct - 23:51:17 10° W 00:00:56 77° S 00:10:58 10° E visible
09 Oct - 01:55:48 10° W 02:05:24 60° SSW 02:15:15 10° SE visible
09 Oct - 04:00:54 10° W 04:08:53 28° SW 04:17:01 10° S visible
09 Oct - 19:21:18 10° S 19:28:15 24° SE 19:35:23 10° E visible
09 Oct - 21:22:16 10° SW 21:31:24 56° SSE 21:40:54 10° E visible
09 Oct - 23:26:06 10° W 23:35:42 77° S 23:45:42 10° E visible
10 Oct - 01:30:36 10° W 01:40:12 62° SSW 01:50:04 10° SE visible
10 Oct - 03:35:34 10° W 03:43:46 31° SW 03:52:08 10° SSE visible
10 Oct - 18:56:36 10° S 19:03:12 22° SE 19:09:56 10° E visible
10 Oct - 20:57:12 10° SW 21:06:14 54° SSE 21:15:38 10° E visible
10 Oct - 23:00:55 10° W 23:10:29 76° S 23:20:26 10° E visible
11 Oct - 01:05:24 10° W 01:14:59 64° SSW 01:24:54 10° ESE visible
11 Oct - 03:10:16 10° W 03:18:40 33° SW 03:27:12 10° SSE visible
11 Oct - 18:31:58 10° S 18:38:09 20° SE 18:44:28 10° E visible
11 Oct - 20:32:09 10° SW 20:41:05 51° SSE 20:50:22 10° E visible
11 Oct - 22:35:44 10° WSW 22:45:15 76° S 22:55:11 10° E visible
12 Oct - 00:40:11 10° W 00:49:47 66° SSW 00:59:42 10° ESE visible
12 Oct - 02:45:00 10° W 02:53:32 35° SW 03:02:16 10° SSE night (unlit)
12 Oct - 18:07:25 10° SSE 18:13:07 18° SE 18:18:56 10° E daylight
12 Oct - 20:07:07 10° SW 20:15:56 49° SSE 20:25:06 10° ENE visible
12 Oct - 22:10:34 10° WSW 22:20:02 75° S 22:29:55 10° E visible
13 Oct - 00:15:00 10° W 00:24:34 68° SSW 00:34:29 10° ESE visible
13 Oct - 02:19:43 10° W 02:28:24 37° SW 02:37:17 10° SSE night (unlit)
13 Oct - 04:28:49 10° WSW 04:30:54 11° WSW 04:33:01 10° SW night (unlit)
13 Oct - 17:42:56 10° SSE 17:48:06 16° SE 17:53:20 10° E daylight
13 Oct - 19:42:06 10° SW 19:50:48 46° SSE 19:59:50 10° ENE visible
13 Oct - 21:45:24 10° WSW 21:54:50 74° S 22:04:39 10° E visible
13 Oct - 23:49:48 10° W 23:59:21 70° SSW 00:09:16 10° ESE visible
14 Oct - 01:54:28 10° W 02:03:16 39° SW 02:12:18 10° SSE night (unlit)
14 Oct - 04:02:22 10° WSW 04:05:52 12° WSW 04:09:25 10° SW night (unlit)
14 Oct - 17:18:35 10° SSE 17:23:04 15° SE 17:27:37 10° E daylight
14 Oct - 19:17:06 10° SSW 19:25:40 43° SE 19:34:34 10° ENE visible
14 Oct - 21:20:14 10° WSW 21:29:36 73° S 21:39:24 10° E visible
14 Oct - 23:24:36 10° W 23:34:08 71° SSW 23:44:03 10° ESE visible
15 Oct - 01:29:13 10° WNW 01:38:07 42° SW 01:47:17 10° SSE visible
15 Oct - 03:36:24 10° W 03:40:50 14° SW 03:45:19 10° SSW night (unlit)
15 Oct - 16:54:25 10° SSE 16:58:04 13° ESE 17:01:44 10° E daylight
15 Oct - 18:52:08 10° SSW 19:00:34 41° SE 19:09:17 10° E visible
15 Oct - 20:55:05 10° WSW 21:04:25 71° SSE 21:14:08 10° E visible
15 Oct - 22:59:25 10° W 23:08:55 73° SSW 23:18:49 10° ESE visible
16 Oct - 01:03:59 10° WNW 01:12:58 44° SW 01:22:14 10° SSE visible
16 Oct - 03:10:39 10° W 03:15:47 16° SW 03:21:00 10° SSW night (unlit)
16 Oct - 16:30:38 10° SE 16:33:04 11° ESE 16:35:30 10° ESE daylight
16 Oct - 18:27:11 10° SSW 18:35:27 38° SE 18:44:00 10° E visible
16 Oct - 20:29:56 10° WSW 20:39:13 70° SSE 20:48:53 10° E visible
16 Oct - 22:34:13 10° W 22:43:43 74° S 22:53:35 10° ESE visible
